Regional Weather Roundup
Issued by NWS Goodland, KS

Home | Current Version | Previous Version | Text Only | Print | Product List | Glossary Off
Versions: 1 2 3 4 5 6 7 8 9 10 11 12 13 14 15 16 17 18 19 20 21 22 23 24 25 26 27 28 29 30 31 32 33 34 35 36 37 38 39 40 41 42 43 44 45 46 47 48 49 50

005
ASUS43 KGLD 260408
RWRGLD

GOODLAND FORECAST AREA HOURLY WEATHER ROUNDUP
NATIONAL WEATHER SERVICE GOODLAND KS
1000 PM MDT MON SEP 25 2017

...OFFICIAL OBSERVATIONS...

CITY           SKY/WX    TMP DP  RH WIND       PRES   REMARKS
GOODLAND KS    CLOUDY    48  47  96 NE8       30.12R
HILL CITY KS   CLOUDY    52  51  97 N9        30.08R
IMPERIAL NEB   LGT RAIN  48  46  93 N6        30.14R
MCCOOK NEB     LGT RAIN  50  48  93 N8        30.10R
AKRON CO       CLOUDY    46  41  82 N8        30.15R
BURLINGTON CO  CLOUDY    48  47  96 N7        30.13R
LIMON CO         N/A    N/A N/A N/A MISG      30.15R
$$

...UNOFFICIAL OBSERVATIONS...

CITY           SKY/WX    TMP DP  RH WIND       PRES   REMARKS
LENORA KS        N/A     50  32  50 MISG        N/A
NORTON KS      CLOUDY    48  46  93 N7        30.08R
SHARON SPRINGS   N/A     49  47  95 NE5G12      N/A
TRIBUNE KS     CLOUDY    50  48  93 N7        30.13
KIT CARSON CO    N/A     48  45  88 MISG        N/A
YUMA CO        CLOUDY    45  43  93 N5        30.14R
$$




USA.gov is the U.S. government's official web portal to all federal, state and local government web resources and services.